Watauga Lake Weather Center

Moon Phase Calendar



Watauga Lake Water Level
Online Cameras

 


      

Current Conditions in Gouge (historical)
11/27/2021 6:24:20 PM

38°F
Feels Like 38
Clear
Humidity
69%
Pressure
30"
Wind
0
Dew Point
29°F
UV Index
0/10 (Low)
Visibility
6 mi

Hourly Forecast

Date & Time Sat, Nov 27
6:00 PM
Sat, Nov 27
7:00 PM
Sat, Nov 27
8:00 PM
Sat, Nov 27
9:00 PM
Sat, Nov 27
10:00 PM
Sat, Nov 27
11:00 PM
Sun, Nov 28
12:00 AM
Sun, Nov 28
1:00 AM
Sun, Nov 28
2:00 AM
Sun, Nov 28
3:00 AM
Sun, Nov 28
4:00 AM
Sun, Nov 28
5:00 AM
Sun, Nov 28
6:00 AM
Sun, Nov 28
7:00 AM
Sun, Nov 28
8:00 AM
Sun, Nov 28
9:00 AM
Sun, Nov 28
10:00 AM
Sun, Nov 28
11:00 AM
Sun, Nov 28
12:00 PM
Sun, Nov 28
1:00 PM
Sun, Nov 28
2:00 PM
Sun, Nov 28
3:00 PM
Sun, Nov 28
4:00 PM
Sun, Nov 28
5:00 PM
Sun, Nov 28
6:00 PM
Sun, Nov 28
7:00 PM
Sun, Nov 28
8:00 PM
Sun, Nov 28
9:00 PM
Sun, Nov 28
10:00 PM
Sun, Nov 28
11:00 PM
Mon, Nov 29
12:00 AM
Mon, Nov 29
1:00 AM
Mon, Nov 29
2:00 AM
Mon, Nov 29
3:00 AM
Mon, Nov 29
4:00 AM
Mon, Nov 29
5:00 AM
Mon, Nov 29
6:00 AM
Mon, Nov 29
7:00 AM
Mon, Nov 29
8:00 AM
Mon, Nov 29
9:00 AM
Mon, Nov 29
10:00 AM
Mon, Nov 29
11:00 AM
Mon, Nov 29
12:00 PM
Mon, Nov 29
1:00 PM
Mon, Nov 29
2:00 PM
Mon, Nov 29
3:00 PM
Mon, Nov 29
4:00 PM
Mon, Nov 29
5:00 PM
Condition
Clear

Clear

Clear

Clear

Clouds

Clouds

Clouds

Clouds

Clouds

Clouds

Clouds

Clouds

Clouds

Clouds

Clouds

Clouds

Clouds

Clouds

Clouds

Clouds

Clouds

Clouds

Clouds

Clouds

Clouds

Clouds

Clouds

Clouds

Clouds

Clouds

Clouds

Clouds

Clouds

Clouds

Clouds

Clouds

Clouds

Clouds

Clouds

Clouds

Clouds

Clouds

Clouds

Clouds

Clouds

Clouds

Clouds

Clouds
Temperature 38°F38°F38°F37°F37°F38°F38°F37°F37°F37°F36°F35°F35°F34°F36°F41°F44°F47°F48°F49°F49°F48°F46°F43°F41°F40°F38°F35°F34°F33°F32°F31°F30°F29°F28°F27°F26°F26°F26°F30°F33°F36°F38°F40°F40°F40°F38°F34°F
Feels Like 36°F36°F35°F35°F35°F35°F34°F33°F33°F33°F32°F31°F31°F31°F33°F39°F42°F44°F46°F47°F46°F45°F43°F39°F37°F35°F33°F31°F30°F28°F27°F25°F24°F23°F22°F21°F21°F20°F21°F24°F27°F31°F34°F36°F37°F35°F34°F34°F
Cloudiness 1%2%4%7%21%45%56%63%100%100%100%100%98%95%88%94%96%97%97%98%100%100%100%100%100%100%100%64%51%44%44%45%56%57%56%58%58%60%65%57%41%40%33%29%32%27%21%21%
Visibility 6 mi6 mi6 mi6 mi6 mi6 mi6 mi6 mi6 mi6 mi6 mi6 mi6 mi6 mi6 mi6 mi6 mi6 mi6 mi6 mi6 mi6 mi6 mi6 mi6 mi6 mi6 mi6 mi6 mi6 mi4 mi3 mi3 mi6 mi6 mi6 mi6 mi6 mi6 mi6 mi6 mi6 mi6 mi6 mi6 mi6 mi6 mi6 mi
Precipitation 0%0%0%0%0%0%0%0%0%0%0%0%0%0%0%0%0%0%0%0%0%0%0%0%0%0%0%0%0%0%0%0%0%0%0%0%0%0%0%0%0%0%0%0%0%0%0%0%
Humidity 69%66%64%62%60%57%56%58%60%61%63%66%67%68%66%57%53%53%53%54%56%60%68%77%84%89%95%98%97%98%98%97%96%95%95%94%92%91%87%66%49%41%36%33%33%36%39%50%
Dew Point 29°F28°F27°F26°F26°F22°F21°F22°F22°F23°F23°F23°F23°F23°F23°F25°F26°F28°F30°F31°F32°F32°F33°F34°F34°F35°F34°F32°F31°F30°F29°F28°F26°F25°F24°F23°F21°F21°F20°F17°F14°F12°F11°F11°F11°F13°F13°F15°F
Pressure 30"30"30.03"30.03"30.06"30.03"30.06"30.03"30.06"30.06"30.03"30.06"30.06"30.06"30.09"30.06"30.03"30.03"30"29.97"29.94"29.94"29.97"29.97"30"30.03"30.06"30.09"30.09"30.09"30.09"30.12"30.12"30.15"30.15"30.15"30.18"30.21"30.24"30.24"30.24"30.21"30.18"30.15"30.12"30.12"30.15"30.15"
Wind Speed 3.3 mph3.4 mph3.6 mph3.5 mph3.4 mph3.6 mph5 mph5 mph5.2 mph5.4 mph4.5 mph4.5 mph3.9 mph3.5 mph3.3 mph3.4 mph4.2 mph5.2 mph6 mph6.1 mph6.6 mph6.6 mph6.2 mph5.9 mph6.2 mph6.5 mph5.6 mph5.2 mph5.3 mph5.3 mph5.6 mph5.7 mph5.4 mph5.4 mph5.4 mph5.2 mph4.8 mph4.4 mph4.2 mph5.3 mph6.3 mph5.7 mph5.1 mph4.8 mph5.4 mph6.1 mph5.2 mph3 mph
Wind
Direction
208°
SSW
195°
SSW
194°
SSW
190°
S
210°
SSW
223°
SW
241°
WSW
252°
WSW
254°
WSW
252°
WSW
256°
WSW
244°
WSW
239°
WSW
227°
SW
222°
SW
254°
WSW
274°
W
272°
W
266°
W
276°
W
280°
W
281°
W
285°
WNW
272°
W
278°
W
283°
WNW
285°
WNW
278°
W
277°
W
286°
WNW
287°
WNW
290°
WNW
291°
WNW
297°
WNW
305°
NW
309°
NW
305°
NW
301°
WNW
308°
NW
310°
NW
314°
NW
311°
NW
304°
NW
299°
WNW
292°
WNW
283°
WNW
281°
W
260°
W

Daily Forecast

Date High Low Precip. Humidity
Today
Nov 27

Clear
50 °F
28 °F
0%
28%
Sunday
Nov 28

Clouds
49 °F
33 °F
0%
53%
Monday
Nov 29

Clouds
40 °F
26 °F
0%
33%
Tuesday
Nov 30

Clear
52 °F
34 °F
0%
55%
Wednesday
Dec 1

Clouds
58 °F
40 °F
0%
56%
Thursday
Dec 2

Rain
56 °F
44 °F
26%
77%
Friday
Dec 3

Rain
55 °F
43 °F
32%
42%
Saturday
Dec 4

Clouds
62 °F
47 °F
0%
63%
Sunday
Dec 5

Rain
56 °F
52 °F
100%
87%
Monday
Dec 6

Rain
55 °F
41 °F
100%
95%
Tuesday
Dec 7

Clouds
52 °F
36 °F
0%
68%
Wednesday
Dec 8

Rain
52 °F
42 °F
100%
96%
Thursday
Dec 9

Snow
46 °F
37 °F
51%
76%
Friday
Dec 10

Clouds
40 °F
30 °F
0%
52%
Saturday
Dec 11

Clouds
49 °F
32 °F
0%
46%
Sunday
Dec 12

Clouds
55 °F
37 °F
5%
84%

Temperature 8-14 Day Outlook



Precipitation 8-14 Day Outlook




Quick Links
Watauga Lake News
Watauga Lake Photos
Watauga Lake Videos




About Us
Contact Us
Site Map
Search Site
Advertise With Us
   
Watauga.USLakes.info
THE WATAUGA LAKE WEBSITE

Copyright 2021, Lakes Online
Privacy    |    Legal